Hourly Data Report for September 20, 2018

SHEARWATER RCS
NOVA SCOTIA
Current Station Operator: ECCC - MSC

44°37'47.000" N
63°30'48.000" W
24.00 m
8205092
71264
AAW

Download Data

Hourly Data (September 2018)
Hourly Data Report for September 20, 2018
TIME Temp Definition
°C
Dew Point Definition
°C
Rel Hum Definition
%
Wind Dir Definition
10's deg

Wind Spd Definition
km/h
Visibility Definition
km
Stn Press Definition
kPa
Hmdx Definition


Wind Chill Definition


Weather Definition


00:00 10.3 8.0 86 2 13   101.65     LegendNANA
01:00 9.8 7.6 86 2 11   101.70     LegendNANA
02:00 9.3 7.2 87 1 12   101.70     LegendNANA
03:00 9.1 7.0 87 36 11   101.73     LegendNANA
04:00 8.9 6.9 88 1 13   101.77     LegendNANA
05:00 8.8 6.9 88 36 11   101.82     LegendNANA
06:00 9.0 7.0 88 1 11   101.86     LegendNANA
07:00 10.2 7.4 83 1 12   101.89     LegendNANA
08:00 11.8 7.1 73 2 14   101.94     LegendNANA
09:00 13.7 7.1 65 2 13   102.00     LegendNANA
10:00 15.0 6.7 57 5 13   102.02     LegendNANA
11:00 15.8 5.0 48 6 11   102.05     LegendNANA
12:00 15.2 5.7 53 36 12   102.06     LegendNANA
13:00 15.5 6.7 56 36 9   102.04     LegendNANA
14:00 15.3 7.0 57 35 9   102.02     LegendNANA
15:00 15.5 6.4 54 36 4   102.07     LegendNANA
16:00 14.9 7.4 61 3 8   102.04     LegendNANA
17:00 14.0 7.6 65 36 13   102.06     LegendNANA
18:00 13.6 7.5 67 36 10   102.10     LegendNANA
19:00 12.6 8.3 75 34 9   102.18     LegendNANA
20:00 12.1 7.5 74 34 8   102.26     LegendNANA
21:00 11.8 7.4 74 34 6   102.31     LegendNANA
22:00 11.4 7.3 76 36 8   102.28     LegendNANA
23:00 10.5 7.5 82 36 9   102.32     LegendNANA

Notes on Data Quality.

Legend

  • E = Estimated
  • M = Missing
  • NA = Not Available*
  • [empty] = Indicates an unobserved value
Date modified: